988  
SXUS52 KTAE 162016  
OSOTAE  
OSOTAE  
NORTH FLORIDA/SOUTH ALABAMA/SOUTHWEST GEORGIA WEATHER ROUNDUP  
NATIONAL WEATHER SERVICE TALLAHASSEE FLORIDA  
400 PM EDT TUE JUL 16 2019  
 
NOTE: "FAIR" INDICATES FEW OR NO CLOUDS BELOW 12,000 FEET WITH NO  
SIGNIFICANT WEATHER AND/OR OBSTRUCTIONS TO VISIBILITY.  
 
!FLZ017-115-028-034-025-162100   
..NORTH FLORIDA
 
 
 
CITY SKY/WX TMP DP RH WIND PRES REMARKS  
TALL INTL ARPT FAIR 96 73 47 VRB7 30.09F HX 105  
FSU LOVE BLDG N/A 95 72 46 SE5 N/A HX 103  
APALACHICOLA FAIR 91 78 65 S9 30.11F HX 106  
PERRY FAIR 91 75 58 NE14 30.12S THUNDER HX 101  
CROSS CITY FAIR 91 77 64 W10 30.10F HX 103  
JACKSONVILLE PTSUNNY 91 73 55 SE8 30.08F THUNDER HX 99  

 
 
!FLZ112-006-005-002-011-162100   
..FLORIDA PANHANDLE
 
 
 
CITY SKY/WX TMP DP RH WIND PRES REMARKS  
MARIANNA TSTM 85 70 60 S24G31 30.12R  
BONIFAY FAIR 94 77 57 VRB3 30.10F THUNDER HX 108  
PANAMA CITY NW FAIR 88 74 63 S8 30.11F HX 96  
TYNDALL AFB FAIR 88 75 65 W8 30.11F HX 97  
TYND DRONE APT FAIR 90 77 65 W5 30.12F HX 103  
DE FUNIAK SPR FAIR 92 71 50 S6 30.12F HX 98  
EGLIN AFB FAIR 89 72 56 S8G18 30.11F HX 96  
DESTIN FAIR 89 75 63 S5 30.11F HX 99  
HURLBURT MOSUNNY 89 75 63 S6 30.10F HX 99  
CRESTVIEW FAIR 95 68 41 SW9G22 30.11F HX 99  
PENSACOLA FAIR 90 76 63 S13 30.10F HX 101  

 
 
!ALZ063-066-162100   
..SOUTH ALABAMA
 
 
 
CITY SKY/WX TMP DP RH WIND PRES REMARKS  
DOTHAN FAIR 93 71 48 SW10 30.14F HX 100  
OZARK CAIRNS FAIR 91 73 55 S7 30.10F HX 100  
FT RUCKER HELI FAIR 93 75 56 S8 30.10F HX 104  
RUCKER HELI 3 FAIR 91 74 56 MISG 30.10F HX 100  
RUCKER HELI 2 FAIR 91 73 55 SW7 30.09F HX 100  
FLORALA APT PTSUNNY 95 67 39 SW14 30.12F HX 99  
ANDALUSIA FAIR 97 67 37 MISG 30.09F HX 101  
TROY FAIR 93 73 52 SW10 30.11F HX 102  
EUFALA NOT AVBL  
MOBILE FAIR 92 77 61 SW10G17 30.10F HX 105  

 
 
!GAZ120>161-162100   
..SOUTHWEST AND SOUTH CENTRAL GEORGIA
 
 
 
CITY SKY/WX TMP DP RH WIND PRES REMARKS  
THOMASVILLE PTSUNNY 91 72 52 S5 30.12F HX 98  
BAINBRIDGE NOT AVBL  
MOODY AFB FAIR 94 76 55 NW5 30.10F HX 106  
VALDOSTA FAIR 95 72 47 S5 30.10F HX 103  
MOULTRIE FAIR 91 70 49 CALM 30.12F HX 97  
BLAKELY FAIR 90 68 48 W3 30.12F HX 93  
ALBANY FAIR 95 71 45 SW7 30.13F HX 102  
TIFTON FAIR N/A N/A N/A NW10 30.11  
FITZGERALD MOCLDY 97 72 44 NW5 30.13F HX 105  
CORDELE FAIR 93 67 42 W8 30.12F HX 97  
AMERICUS FAIR 97 63 32 W6 30.13F HX 98  
HOMERVILLE PTSUNNY 86 72 62 E8G16 30.10S HX 92  

 
 
!GMZ750-755-770-775-162100   
..COASTAL AND BUOY OBS
 
 
 
STATION/POSITION TIME TEMP WIND PRES VSBY WAVE  
AIR SEA DIR/SP/G HT/PER  
(UTC) (F) (DEG/KT/KT) (MB) (MI) (FT/S)  
KEATON BEACH 2000 89 260/ 8/ 9 1019.8F  
CEDAR KEY 2000 89 250/ 4/ 6 1019.5F  
C TOWER 2000 85 CALM / 3 1020.1F  
APALACHICOLA BUO 2000 85 160/ 4/ 6 1020.4  
PANAMA CITY BUOY 1950 87 86 350/ 2/ 4 1019.7F 2/ 5  
MOBILE BUOY 2000 84 84 170/ 4/ 6 1019.6  
ORANGE BCH AL BU 2000 84 85 200/ 4/ 8 1020.2  

 
 
 
CLICK HERE TO GO TO PREVIOUS BULLETINS.

The Nexlab FL Page
The Nexlab GA Page
The Nexlab AL Page Main Text Page